EW7318 Weather Reports


time (UTC)temp
F
wind
direction
speed
knots
gust
knots
rain 1hr
in
rain 24hr
in
rain mn
in
humidity
%
barometer
mb
20210920062143 52 149 0.0 0.0 0.00 0.00 0.00 97 1014.6
20210920061625 52 149 0.0 0.0 0.00 0.00 0.00 97 1014.7
20210920061117 52 149 0.0 0.0 0.00 0.00 0.00 97 1014.9
20210920060608 53 149 0.0 0.0 0.00 0.00 0.00 97 1014.9
20210920060050 53 149 0.0 0.0 0.00 0.00 0.00 97 1014.8
20210920055542 53 149 0.0 0.0 0.00 0.00 0.00 97 1015.0
20210920055036 53 149 0.0 0.0 0.00 0.00 0.00 97 1014.6
20210920054525 53 149 0.0 0.0 0.00 0.00 0.00 97 1014.7
20210920054009 53 149 0.0 0.0 0.00 0.00 0.00 97 1014.6
20210920053459 53 149 0.0 0.0 0.00 0.00 0.00 97 1014.5
20210920052941 53 149 0.0 0.0 0.00 0.00 0.00 97 1014.7
20210920052431 53 149 0.0 0.0 0.00 0.00 0.00 97 1014.6
20210920051924 53 149 0.0 0.0 0.00 0.00 0.00 97 1014.5
20210920051404 53 149 0.0 0.0 0.00 0.00 0.00 97 1014.5
20210920050857 53 149 0.0 0.0 0.00 0.00 0.00 97 1014.3
20210920050349 54 150 0.0 0.0 0.00 0.00 0.00 97 1014.5
20210920045841 54 150 0.0 0.0 0.00 0.00 0.00 97 1014.5
20210920045335 53 150 0.0 0.0 0.00 0.00 0.00 97 1014.5
20210920044824 54 150 0.0 0.0 0.00 0.00 0.00 97 1014.4
20210920044316 54 150 0.0 0.0 0.00 0.00 0.00 97 1014.4
20210920043809 54 149 0.0 0.0 0.00 0.00 0.00 97 1014.4
20210920043303 54 149 0.0 0.0 0.00 0.00 0.00 97 1014.4
20210920042747 54 149 0.0 0.0 0.00 0.00 0.00 96 1014.2
20210920042235 54 149 0.0 0.0 0.00 0.00 0.00 96 1014.4
20210920041725 54 149 0.0 0.0 0.00 0.00 0.00 96 1014.4
20210920041208 54 149 0.0 0.0 0.00 0.00 0.00 96 1014.4
20210920040704 54 149 0.0 0.0 0.00 0.00 0.00 96 1014.3
20210920040153 54 149 0.0 0.0 0.00 0.00 0.00 96 1014.3
20210920035643 54 149 0.0 0.0 0.00 0.00 0.00 96 1014.2
20210920035135 54 149 0.0 0.0 0.00 0.00 0.00 96 1013.9
20210920034627 54 149 0.0 0.0 0.00 0.00 0.00 96 1014.1
20210920034118 55 149 0.0 0.0 0.00 0.00 0.00 95 1013.7
20210920033612 55 150 0.0 0.0 0.00 0.00 0.00 95 1014.1
20210920033104 55 143 0.0 0.0 0.00 0.00 0.00 95 1014.1
20210920032555 55 143 0.0 0.0 0.00 0.00 0.00 95 1014.1
20210920032048 55 143 0.0 0.0 0.00 0.00 0.00 95 1013.7
20210920031538 55 143 0.0 0.0 0.00 0.00 0.00 95 1013.5
20210920031023 55 160 0.0 0.0 0.00 0.00 0.00 95 1013.7
20210920030513 55 145 0.0 0.0 0.00 0.00 0.00 95 1013.6
20210920030012 55 144 0.0 0.0 0.00 0.00 0.00 95 1013.6
20210920025455 56 144 0.0 0.0 0.00 0.00 0.00 95 1013.5
20210920024949 56 144 0.0 0.0 0.00 0.00 0.00 94 1013.4
20210920024440 56 144 0.0 0.0 0.00 0.00 0.00 94 1013.3
20210920023932 56 144 0.0 0.0 0.00 0.00 0.00 94 1013.7
20210920023424 56 146 0.0 0.0 0.00 0.00 0.00 94 1013.5
20210920022918 56 137 0.0 0.0 0.00 0.00 0.00 94 1013.5
20210920022400 56 136 0.0 0.0 0.00 0.00 0.00 94 1013.5
20210920021849 56 142 0.0 0.0 0.00 0.00 0.00 94 1013.4
20210920021343 56 142 0.0 0.0 0.00 0.00 0.00 94 1013.6
20210920020832 56 142 0.0 0.0 0.00 0.00 0.00 93 1013.3
20210920020325 56 143 0.0 0.0 0.00 0.00 0.00 93 1013.2
20210920015818 57 142 0.0 0.0 0.00 0.00 0.00 93 1013.4
20210920015308 56 142 0.0 0.0 0.00 0.00 0.00 93 1013.0
20210920014803 57 142 0.0 0.0 0.00 0.00 0.00 93 1013.0
20210920014253 57 142 0.0 0.0 0.00 0.00 0.00 93 1012.9
20210920013748 57 142 0.0 0.0 0.00 0.00 0.00 93 1013.0
20210920013238 57 142 0.0 0.0 0.00 0.00 0.00 93 1012.8
20210920012729 57 142 0.0 0.0 0.00 0.00 0.00 93 1012.8
20210920012221 57 142 0.0 0.0 0.00 0.00 0.00 92 1012.7
20210920011713 57 142 0.0 0.0 0.00 0.00 0.00 92 1012.6
20210920011205 57 142 0.0 0.0 0.00 0.00 0.00 92 1012.6
20210920010658 58 142 0.0 0.0 0.00 0.00 0.00 92 1012.7
20210920010151 58 142 0.0 0.0 0.00 0.00 0.00 92 1012.5
20210920005645 58 142 0.0 0.0 0.00 0.00 0.00 91 1012.6
20210920005133 58 142 0.0 0.0 0.00 0.00 0.00 91 1012.6
20210920004632 58 142 0.0 0.0 0.00 0.00 0.00 91 1012.6
20210920004117 58 142 0.0 0.0 0.00 0.00 0.00 91 1012.4
20210920003611 59 142 0.0 0.0 0.00 0.00 0.00 90 1012.4
20210920003108 59 142 0.0 0.0 0.00 0.00 0.00 90 1012.5
20210920002543 59 141 0.0 0.0 0.00 0.00 0.00 89 1012.2
20210920002036 59 141 0.0 0.0 0.00 0.00 0.00 89 1012.1
20210920001527 59 141 0.0 0.0 0.00 0.00 0.00 89 1012.1
20210920001009 59 141 0.0 0.0 0.00 0.00 0.00 88 1012.0
20210920000459 59 141 0.0 0.0 0.00 0.00 0.00 88 1012.0
20210919235953 59 142 0.0 0.0 0.00 0.00 0.00 87 1011.5
20210919235442 60 142 0.0 0.0 0.00 0.00 0.00 87 1011.7
20210919234935 60 142 0.0 0.0 0.00 0.00 0.00 86 1011.7
20210919234427 60 142 0.0 0.9 0.00 0.00 0.00 87 1011.3
20210919233919 60 146 0.0 0.9 0.00 0.00 0.00 86 1011.5
20210919233410 60 144 0.0 0.0 0.00 0.00 0.00 86 1011.4
20210919232903 61 144 0.0 0.0 0.00 0.00 0.00 85 1011.3
20210919232355 61 144 0.0 0.0 0.00 0.00 0.00 84 1011.1
20210919231847 61 144 0.0 0.0 0.00 0.00 0.00 82 1011.2
20210919231341 62 145 0.0 0.0 0.00 0.00 0.00 82 1010.9
20210919230832 62 145 0.0 0.0 0.00 0.00 0.00 81 1011.4
20210919230312 62 145 0.0 0.0 0.00 0.00 0.00 81 1011.0
20210919225803 63 144 0.0 0.0 0.00 0.00 0.00 80 1011.0
20210919225256 63 145 0.0 0.0 0.00 0.00 0.00 78 1010.8
20210919224750 64 145 0.0 0.0 0.00 0.00 0.00 77 1010.9
20210919224239 64 144 0.0 0.0 0.00 0.00 0.00 76 1010.8
20210919223733 65 144 0.0 0.0 0.00 0.00 0.00 75 1010.7
20210919223224 65 145 0.0 0.0 0.00 0.00 0.00 75 1010.7
20210919222716 65 144 0.0 0.0 0.00 0.00 0.00 75 1010.4
20210919222208 66 144 0.0 0.0 0.00 0.00 0.00 73 1010.4
20210919221700 67 144 0.0 0.9 0.00 0.00 0.00 72 1010.4
20210919221151 67 146 0.0 0.9 0.00 0.00 0.00 70 1010.5
20210919220646 68 145 0.0 0.9 0.00 0.00 0.00 69 1010.1
20210919220136 68 133 0.0 0.0 0.00 0.00 0.00 64 1010.4
20210919215627 69 133 0.0 0.9 0.00 0.00 0.00 62 1010.5
20210919215119 69 136 0.0 1.7 0.00 0.00 0.00 63 1010.3
20210919214605 70 136 0.0 1.7 0.00 0.00 0.00 63 1010.3
20210919214053 71 131 0.0 5.2 0.00 0.00 0.00 60 1010.3
20210919213544 71 97 0.0 5.2 0.00 0.00 0.00 60 1010.1
20210919213038 72 146 0.9 3.5 0.00 0.00 0.00 57 1010.1
20210919212529 73 137 0.0 3.5 0.00 0.00 0.00 55 1010.2
20210919212020 73 138 0.9 3.5 0.00 0.00 0.00 52 1010.2
20210919211513 73 324 1.7 3.5 0.00 0.00 0.00 50 1010.1
20210919211005 73 133 0.0 2.6 0.00 0.00 0.00 55 1010.3
20210919210457 73 133 0.0 2.6 0.00 0.00 0.00 56 1010.2
20210919205949 74 127 0.0 2.6 0.00 0.00 0.00 54 1010.0
20210919205441 73 178 1.7 2.6 0.00 0.00 0.00 50 1010.0
20210919204932 72 124 0.0 1.7 0.00 0.00 0.00 58 1010.1
20210919204426 73 120 0.0 2.6 0.00 0.00 0.00 56 1010.0
20210919203916 73 115 0.0 2.6 0.00 0.00 0.00 56 1009.9
20210919203408 73 115 0.0 2.6 0.00 0.00 0.00 55 1009.9
20210919202902 74 147 0.9 2.6 0.00 0.00 0.00 53 1010.0
20210919202354 74 153 0.0 0.9 0.00 0.00 0.00 54 1009.9
20210919201846 74 127 0.0 1.7 0.00 0.00 0.00 52 1010.1
20210919201336 74 164 1.7 1.7 0.00 0.00 0.00 52 1009.9
20210919200828 74 139 0.0 2.6 0.00 0.00 0.00 51 1009.8
20210919200323 73 151 0.0 3.5 0.00 0.00 0.00 54 1010.1
20210919195813 75 147 0.0 7.0 0.00 0.00 0.00 51 1010.2
20210919195305 74 205 0.9 7.0 0.00 0.00 0.00 48 1009.8
20210919194758 75 56 0.9 5.2 0.00 0.00 0.00 50 1010.0
20210919194247 75 120 0.0 3.5 0.00 0.00 0.00 50 1010.1
20210919193740 75 282 2.6 3.5 0.00 0.00 0.00 49 1009.8
20210919193230 74 146 0.0 3.5 0.00 0.00 0.00 51 1010.2
20210919192723 74 243 0.9 2.6 0.00 0.00 0.00 48 1010.1
20210919192215 75 113 0.0 1.7 0.00 0.00 0.00 50 1010.3
20210919191707 74 137 0.0 1.7 0.00 0.00 0.00 54 1010.1
20210919191158 74 152 0.0 1.7 0.00 0.00 0.00 50 1010.2
20210919190654 74 113 0.9 2.6 0.00 0.00 0.00 48 1010.2
20210919190145 74 43 0.9 6.1 0.00 0.00 0.00 46 1010.1
20210919185625 75 128 0.9 6.1 0.00 0.00 0.00 52 1010.3
20210919185115 74 166 1.7 3.5 0.00 0.00 0.00 49 1010.1
20210919184608 74 128 0.0 3.5 0.00 0.00 0.00 55 1010.0
20210919184101 75 274 0.9 5.2 0.00 0.00 0.00 48 1010.2
20210919183553 75 82 0.9 5.2 0.00 0.00 0.00 52 1010.2
20210919183045 75 185 0.9 7.8 0.00 0.00 0.00 50 1010.3
20210919182537 75 277 2.6 7.8 0.00 0.00 0.00 50 1010.4
20210919182027 75 149 0.0 2.6 0.00 0.00 0.00 53 1010.2
20210919181519 74 158 0.0 2.6 0.00 0.00 0.00 51 1010.1
20210919181010 74 187 0.9 2.6 0.00 0.00 0.00 51 1010.3
20210919180504 75 114 0.9 5.2 0.00 0.00 0.00 51 1010.3
20210919175955 75 160 0.0 5.2 0.00 0.00 0.00 49 1010.5
20210919175446 75 109 3.5 5.2 0.00 0.00 0.00 50 1010.3
20210919174940 74 140 0.0 5.2 0.00 0.00 0.00 52 1010.3
20210919174431 75 91 0.9 7.0 0.00 0.00 0.00 53 1010.5
20210919173922 74 349 0.9 3.5 0.00 0.00 0.00 56 1010.4
20210919173415 74 237 0.9 5.2 0.00 0.00 0.00 52 1010.6
20210919172907 73 157 0.0 5.2 0.00 0.00 0.00 54 1010.6
20210919172400 74 10 2.6 5.2 0.00 0.00 0.00 53 1010.5
20210919171850 74 144 0.0 7.8 0.00 0.00 0.00 56 1010.5
20210919171346 74 205 3.5 7.8 0.00 0.00 0.00 53 1010.5
20210919170822 73 147 0.0 7.0 0.00 0.00 0.00 56 1010.6
20210919170313 73 117 1.7 5.2 0.00 0.00 0.00 58 1010.8
20210919165805 73 165 0.9 6.1 0.00 0.00 0.00 57 1010.7
20210919165258 73 137 0.9 6.1 0.00 0.00 0.00 54 1010.9
20210919164749 74 119 1.7 3.5 0.00 0.00 0.00 56 1011.0
20210919164239 74 147 0.0 5.2 0.00 0.00 0.00 58 1010.8
20210919163731 74 44 2.6 5.2 0.00 0.00 0.00 54 1010.8
20210919163224 73 168 1.7 6.1 0.00 0.00 0.00 58 1010.5
20210919162704 73 26 1.7 6.1 0.00 0.00 0.00 62 1010.7
20210919162155 73 327 1.7 5.2 0.00 0.00 0.00 57 1010.6
20210919161648 73 145 0.0 5.2 0.00 0.00 0.00 59 1010.7
20210919161138 72 55 0.0 6.1 0.00 0.00 0.00 64 1010.7
20210919160629 71 347 2.6 6.1 0.00 0.00 0.00 60 1010.9
20210919160119 71 152 0.9 6.1 0.00 0.00 0.00 62 1010.8
20210919155611 72 113 3.5 6.1 0.00 0.00 0.00 61 1010.7
20210919155107 73 286 1.7 2.6 0.00 0.00 0.00 61 1010.7
20210919154555 72 141 0.0 3.5 0.00 0.00 0.00 61 1010.4
20210919154047 71 172 0.0 3.5 0.00 0.00 0.00 66 1010.8
20210919153535 70 132 0.9 3.5 0.00 0.00 0.00 65 1010.7
20210919153033 70 137 0.0 6.1 0.00 0.00 0.00 67 1010.6
20210919152520 71 353 1.7 6.1 0.00 0.00 0.00 65 1010.5
20210919152013 71 118 0.9 2.6 0.00 0.00 0.00 64 1010.7
20210919151504 72 152 0.0 7.0 0.00 0.00 0.00 65 1010.5
20210919150955 72 155 0.0 7.0 0.00 0.00 0.00 63 1010.4
20210919150448 71 89 2.6 3.5 0.00 0.00 0.00 63 1010.2
20210919145942 71 96 0.0 6.1 0.00 0.00 0.00 66 1010.6
20210919145432 71 18 1.7 5.2 0.00 0.00 0.00 63 1010.4
20210919144912 71 92 0.9 3.5 0.00 0.00 0.00 67 1010.4
20210919144404 71 138 0.9 3.5 0.00 0.00 0.00 64 1010.4
20210919143856 71 137 0.0 3.5 0.00 0.00 0.00 68 1010.2
20210919143351 70 343 0.0 5.2 0.00 0.00 0.00 67 1010.4
20210919142840 70 240 0.9 5.2 0.00 0.00 0.00 66 1010.1
20210919142332 70 136 0.0 3.5 0.00 0.00 0.00 66 1010.2
20210919141825 70 139 0.0 5.2 0.00 0.00 0.00 67 1010.2
20210919141315 69 144 0.0 5.2 0.00 0.00 0.00 68 1010.4
20210919140805 70 130 0.0 5.2 0.00 0.00 0.00 67 1010.1
20210919140258 69 97 1.7 7.0 0.00 0.00 0.00 67 1010.2
20210919135750 69 153 0.9 5.2 0.00 0.00 0.00 67 1010.2
20210919135242 69 64 0.9 5.2 0.00 0.00 0.00 69 1010.1
20210919134734 69 96 0.9 5.2 0.00 0.00 0.00 70 1009.9
20210919134227 68 149 0.9 5.2 0.00 0.00 0.00 70 1010.0
20210919133716 68 135 0.0 3.5 0.00 0.00 0.00 72 1010.0
20210919133209 68 44 0.0 3.5 0.00 0.00 0.00 72 1010.0
20210919132652 67 139 0.0 6.1 0.00 0.00 0.00 73 1009.9
20210919132142 66 167 0.9 6.1 0.00 0.00 0.00 73 1010.0
20210919131637 65 147 0.0 3.5 0.00 0.00 0.00 76 1009.9
20210919131134 65 116 0.9 5.2 0.00 0.00 0.00 76 1009.9
20210919130619 65 123 1.7 5.2 0.00 0.00 0.00 78 1009.9
20210919130112 64 99 1.7 5.2 0.00 0.00 0.00 79 1009.7
20210919125604 64 117 0.9 7.8 0.00 0.00 0.00 80 1009.7
20210919125054 64 100 0.0 6.1 0.00 0.00 0.00 80 1009.8
20210919124546 64 129 1.7 8.7 0.00 0.00 0.00 80 1010.0
20210919124037 64 114 0.9 11.3 0.00 0.00 0.00 80 1009.8
20210919123530 64 68 2.6 11.3 0.00 0.00 0.00 81 1009.7
20210919123024 64 112 0.0 7.8 0.00 0.00 0.00 81 1009.7
20210919122513 64 144 1.7 5.2 0.00 0.00 0.00 81 1009.6
20210919122006 64 28 1.7 5.2 0.00 0.00 0.00 82 1009.7
20210919121457 63 137 0.9 5.2 0.00 0.00 0.00 83 1009.4
20210919120951 63 208 0.9 5.2 0.00 0.00 0.00 82 1009.4
20210919120443 63 85 0.9 6.1 0.00 0.00 0.00 83 1009.2
20210919115938 63 120 0.9 2.6 0.00 0.00 0.00 84 1009.1
20210919115427 63 66 1.7 3.5 0.00 0.00 0.00 84 1008.9
20210919114917 63 156 0.9 7.0 0.00 0.00 0.00 84 1009.1
20210919114409 63 70 1.7 7.0 0.00 0.00 0.00 84 1009.0
20210919113905 63 78 2.6 5.2 0.00 0.00 0.00 85 1009.0
20210919113353 62 141 0.9 6.1 0.00 0.00 0.00 86 1009.1
20210919112845 62 54 0.0 6.1 0.00 0.00 0.00 86 1008.9
20210919112339 62 109 0.0 6.1 0.00 0.00 0.00 86 1008.6
20210919111833 62 141 0.0 3.5 0.00 0.00 0.00 87 1008.4
20210919111322 62 13 1.7 5.2 0.00 0.00 0.00 87 1008.3
20210919110814 63 149 0.9 5.2 0.00 0.00 0.00 87 1008.2
20210919110309 63 120 1.7 5.2 0.00 0.00 0.00 87 1008.3
20210919105759 63 328 1.7 5.2 0.00 0.00 0.00 87 1008.2
20210919105249 63 129 0.9 5.2 0.00 0.00 0.00 87 1008.0
20210919104741 63 332 1.7 5.2 0.00 0.00 0.00 87 1008.0
20210919104235 63 140 0.0 3.5 0.00 0.00 0.00 87 1008.0
20210919103724 63 94 0.9 3.5 0.00 0.00 0.00 87 1007.9
20210919103220 63 144 0.9 3.5 0.00 0.00 0.00 87 1007.8
20210919102709 64 53 0.0 5.2 0.00 0.00 0.00 87 1008.0
20210919102201 64 343 1.7 5.2 0.00 0.00 0.00 87 1007.8
20210919101653 64 138 0.0 3.5 0.00 0.00 0.00 87 1007.6
20210919101151 64 359 1.7 3.5 0.00 0.00 0.00 87 1007.6
20210919100638 64 140 0.0 3.5 0.00 0.00 0.00 87 1007.5
20210919100130 64 359 1.7 3.5 0.00 0.00 0.00 87 1007.7
20210919095621 64 26 0.9 3.5 0.00 0.00 0.00 88 1007.0
20210919095113 64 139 0.0 5.2 0.00 0.00 0.00 88 1007.1
20210919094606 65 14 1.7 5.2 0.00 0.00 0.00 88 1007.2
20210919094100 65 116 0.9 5.2 0.00 0.00 0.00 89 1007.1
20210919093552 65 67 2.6 6.1 0.00 0.00 0.00 89 1006.9
20210919093041 64 140 0.9 6.1 0.00 0.00 0.00 91 1007.0
20210919092533 64 49 0.9 5.2 0.00 0.00 0.00 93 1007.0
20210919092027 64 1 0.0 3.5 0.00 0.00 0.00 94 1006.9
20210919091518 65 354 0.9 3.5 0.00 0.00 0.00 95 1006.7
20210919091009 65 133 0.0 2.6 0.00 0.00 0.00 95 1006.7
20210919090501 65 128 0.0 2.6 0.00 0.00 0.00 95 1006.6
20210919085953 65 140 0.0 2.6 0.00 0.00 0.00 95 1006.5
20210919085445 65 115 0.9 3.5 0.00 0.00 0.00 95 1006.4
20210919084938 65 24 1.7 3.5 0.00 0.00 0.00 95 1006.7
20210919084428 65 102 0.0 1.7 0.00 0.00 0.00 96 1006.4
20210919083923 65 153 0.9 2.6 0.00 0.00 0.00 96 1006.3
20210919083413 65 70 0.0 2.6 0.00 0.00 0.00 96 1006.5
20210919082906 65 134 0.0 2.6 0.00 0.00 0.00 95 1006.2
20210919082356 65 143 0.0 0.9 0.00 0.00 0.00 95 1006.1
20210919081849 66 128 0.0 0.9 0.00 0.00 0.00 95 1006.1
20210919081330 66 144 0.0 0.9 0.00 0.00 0.00 95 1006.2
20210919080822 66 139 0.0 1.7 0.00 0.00 0.00 95 1006.2
20210919080314 66 139 0.0 1.7 0.00 0.00 0.00 95 1006.2
20210919075806 66 23 0.9 3.5 0.00 0.00 0.00 95 1005.7
20210919075305 67 200 0.9 3.5 0.00 0.00 0.00 95 1006.0
20210919074751 67 124 0.0 2.6 0.00 0.00 0.00 95 1006.0
20210919074243 67 144 0.9 2.6 0.00 0.00 0.00 95 1005.9
20210919073734 67 25 0.9 1.7 0.00 0.00 0.00 95 1005.9
20210919073224 67 145 0.0 0.9 0.00 0.00 0.00 95 1006.0
20210919072718 67 150 0.0 1.7 0.00 0.00 0.00 95 1005.9
20210919072209 67 143 0.0 2.6 0.00 0.00 0.00 95 1006.0
20210919071702 67 120 0.0 5.2 0.00 0.00 0.00 95 1005.9
20210919071152 67 123 1.7 5.2 0.00 0.00 0.00 95 1005.7
20210919070645 67 137 0.0 5.2 0.00 0.00 0.00 96 1006.0
20210919070137 67 79 0.9 5.2 0.00 0.00 0.00 96 1005.8
20210919065634 67 167 1.7 3.5 0.00 0.00 0.00 96 1006.1
20210919065121 67 128 0.9 3.5 0.00 0.00 0.00 96 1006.0
20210919064612 67 136 0.9 2.6 0.00 0.00 0.00 96 1005.6
20210919064105 67 34 0.9 1.7 0.00 0.00 0.00 96 1005.8
20210919063555 67 124 0.0 1.7 0.00 0.00 0.00 96 1005.9
20210919063048 67 139 0.0 1.7 0.00 0.00 0.00 96 1006.0
20210919062544 66 140 0.0 2.6 0.00 0.00 0.00 96 1005.6